When you browse on this site, cookies collect data to enhance your experience and personalize the content and advertising you see.
Visit our Privacy Policy to learn more. By continuing to use the site, you agree to this use of cookies and data.
  • In Spain
  • List of Countries
  • For 7 days
  • Water Temperature
  • Satellite Maps
  • Weather Map
  • Weather Widgets
  • user-avatar
    Login

    Hourly Weather Encamp

    Today, 25 June, Tuesday

    Time Temperature Precipitation Wind Pressure Humidity
    00:00 +15°C° 0 mm 2 mps 626 mmHg 48%
    01:00 +15°C° 0 mm 2 mps 626 mmHg 48%
    02:00 +15°C° 0 mm 2 mps 626 mmHg 48%
    03:00 +15°C° 0 mm 2 mps 626 mmHg 48%
    04:00 +16°C° 0 mm 2 mps 626 mmHg 49%
    05:00 +16°C° 0 mm 2 mps 627 mmHg 49%
    06:00 +18°C° 0 mm 1 mps 627 mmHg 50%
    07:00 +20°C° 0 mm 2 mps 628 mmHg 46%
    08:00 +23°C° 0 mm 2 mps 629 mmHg 42%
    09:00 +25°C° 0 mm 2 mps 630 mmHg 38%
    10:00 +26°C° 0 mm 2 mps 631 mmHg 34%
    11:00 +28°C° 0 mm 2 mps 631 mmHg 31%
    12:00 +29°C° 0 mm 3 mps 632 mmHg 28%
    13:00 +29°C° 0 mm 2 mps 631 mmHg 29%
    14:00 +29°C° 0 mm 2 mps 631 mmHg 30%
    15:00 +29°C° 0 mm 2 mps 631 mmHg 31%
    16:00 +28°C° 0 mm 2 mps 631 mmHg 39%
    17:00 +27°C° 0 mm 1 mps 630 mmHg 47%
    18:00 +25°C° 0 mm 1 mps 630 mmHg 55%
    19:00 +23°C° 0 mm 1 mps 630 mmHg 57%
    20:00 +20°C° 0 mm 2 mps 629 mmHg 59%
    21:00 +18°C° 0 mm 2 mps 629 mmHg 62%
    22:00 +18°C° 0 mm 2 mps 629 mmHg 59%
    23:00 +17°C° 0 mm 2 mps 629 mmHg 55%

    Tomorrow, 26 June, Wednesday

    Time Temperature Precipitation Wind Pressure Humidity
    00:00 +17°C° 0 mm 2 mps 629 mmHg 52%
    01:00 +17°C° 0 mm 2 mps 628 mmHg 49%
    02:00 +17°C° 0 mm 2 mps 628 mmHg 46%
    03:00 +17°C° 0 mm 2 mps 628 mmHg 43%
    04:00 +17°C° 0 mm 2 mps 629 mmHg 42%
    05:00 +18°C° 0 mm 2 mps 629 mmHg 42%
    06:00 +19°C° 0 mm 2 mps 629 mmHg 42%
    07:00 +23°C° 0 mm 2 mps 631 mmHg 36%
    08:00 +26°C° 0 mm 3 mps 632 mmHg 29%
    09:00 +28°C° 0 mm 3 mps 633 mmHg 23%
    10:00 +29°C° 0 mm 4 mps 633 mmHg 22%
    11:00 +30°C° 0 mm 4 mps 633 mmHg 21%
    12:00 +32°C° 0 mm 4 mps 633 mmHg 21%
    13:00 +30°C° 0 mm 4 mps 633 mmHg 21%
    14:00 +30°C° 0 mm 4 mps 633 mmHg 22%
    15:00 +30°C° 0 mm 4 mps 633 mmHg 23%
    16:00 +29°C° 0 mm 3 mps 632 mmHg 30%
    17:00 +27°C° 0 mm 3 mps 631 mmHg 37%
    18:00 +26°C° 0 mm 2 mps 631 mmHg 44%
    19:00 +24°C° 0 mm 2 mps 630 mmHg 44%
    20:00 +21°C° 0 mm 2 mps 630 mmHg 45%
    21:00 +19°C° 0 mm 2 mps 630 mmHg 46%
    22:00 +19°C° 0 mm 2 mps 630 mmHg 42%
    23:00 +19°C° 0 mm 2 mps 630 mmHg 37%

    Day after tomorrow, 27 June, Thursday

    Time Temperature Precipitation Wind Pressure Humidity
    00:00 +19°C° 0 mm 2 mps 630 mmHg 33%
    01:00 +19°C° 0 mm 2 mps 630 mmHg 31%
    02:00 +19°C° 0 mm 2 mps 630 mmHg 30%
    03:00 +19°C° 0 mm 2 mps 630 mmHg 28%
    04:00 +19°C° 0 mm 2 mps 630 mmHg 31%
    05:00 +20°C° 0 mm 2 mps 630 mmHg 34%
    06:00 +21°C° 0 mm 2 mps 631 mmHg 37%
    07:00 +25°C° 0 mm 1 mps 632 mmHg 32%
    08:00 +27°C° 0 mm 1 mps 633 mmHg 27%
    09:00 +30°C° 0 mm 1 mps 634 mmHg 22%
    10:00 +31°C° 0 mm 1 mps 634 mmHg 20%
    11:00 +32°C° 0 mm 1 mps 634 mmHg 18%
    12:00 +34°C° 0 mm 2 mps 634 mmHg 17%
    13:00 +33°C° 0 mm 1 mps 634 mmHg 18%
    14:00 +32°C° 0 mm 1 mps 634 mmHg 19%
    15:00 +32°C° 0 mm 1 mps 633 mmHg 20%
    16:00 +31°C° 0 mm 1 mps 632 mmHg 27%
    17:00 +29°C° 0 mm 1 mps 632 mmHg 35%
    18:00 +28°C° 0 mm 1 mps 631 mmHg 43%
    19:00 +26°C° 0 mm 1 mps 630 mmHg 42%
    20:00 +23°C° 0 mm 1 mps 630 mmHg 41%
    21:00 +21°C° 0 mm 1 mps 629 mmHg 40%
    22:00 +21°C° 0 mm 1 mps 629 mmHg 37%
    23:00 +20°C° 0 mm 2 mps 629 mmHg 35%

    28 June, Friday

    Time Temperature Precipitation Wind Pressure Humidity
    00:00 +20°C° 0 mm 2 mps 629 mmHg 32%
    01:00 +20°C° 0 mm 2 mps 628 mmHg 32%
    02:00 +20°C° 0 mm 2 mps 628 mmHg 32%
    03:00 +19°C° 0 mm 2 mps 628 mmHg 33%
    04:00 +20°C° 0 mm 2 mps 628 mmHg 35%
    05:00 +20°C° 0 mm 2 mps 628 mmHg 37%
    06:00 +21°C° 0 mm 2 mps 629 mmHg 39%
    07:00 +25°C° 0 mm 1 mps 630 mmHg 32%
    08:00 +28°C° 0 mm 1 mps 631 mmHg 26%
    09:00 +30°C° 0 mm 1 mps 632 mmHg 19%
    10:00 +31°C° 0 mm 1 mps 632 mmHg 18%
    11:00 +32°C° 0 mm 1 mps 632 mmHg 18%
    12:00 +33°C° 0 mm 1 mps 632 mmHg 17%
    13:00 +32°C° 0 mm 2 mps 631 mmHg 18%
    14:00 +32°C° 0 mm 2 mps 631 mmHg 20%
    15:00 +31°C° 0 mm 2 mps 630 mmHg 21%
    16:00 +30°C° 0 mm 2 mps 630 mmHg 30%
    17:00 +28°C° 0 mm 2 mps 629 mmHg 38%
    18:00 +27°C° 0 mm 1 mps 628 mmHg 46%
    19:00 +25°C° 0 mm 1 mps 628 mmHg 45%
    20:00 +23°C° 0 mm 1 mps 628 mmHg 44%
    21:00 +21°C° 0 mm 1 mps 627 mmHg 43%
    22:00 +21°C° 0 mm 1 mps 627 mmHg 42%
    23:00 +21°C° 0 mm 1 mps 627 mmHg 41%

    29 June, Saturday

    Time Temperature Precipitation Wind Pressure Humidity
    00:00 +20°C° 0 mm 1 mps 627 mmHg 40%
    01:00 +20°C° 0 mm 1 mps 627 mmHg 39%
    02:00 +20°C° 0 mm 1 mps 627 mmHg 38%
    03:00 +20°C° 0 mm 1 mps 626 mmHg 37%
    04:00 +21°C° 0 mm 1 mps 627 mmHg 39%
    05:00 +21°C° 0 mm 1 mps 627 mmHg 41%
    06:00 +22°C° 0 mm 1 mps 628 mmHg 42%
    07:00 +25°C° 0 mm 1 mps 629 mmHg 36%
    08:00 +27°C° 0 mm 1 mps 630 mmHg 30%
    09:00 +29°C° 0 mm 1 mps 631 mmHg 24%
    10:00 +30°C° 0 mm 2 mps 631 mmHg 23%
    11:00 +31°C° 0 mm 2 mps 631 mmHg 21%
    12:00 +32°C° 0 mm 2 mps 631 mmHg 20%
    13:00 +31°C° 0 mm 2 mps 631 mmHg 23%
    14:00 +31°C° 0 mm 2 mps 631 mmHg 26%
    15:00 +30°C° 0 mm 2 mps 630 mmHg 28%
    16:00 +29°C° 0 mm 2 mps 630 mmHg 36%
    17:00 +28°C° 0 mm 1 mps 629 mmHg 44%
    18:00 +26°C° 0 mm 1 mps 629 mmHg 52%
    19:00 +24°C° 0 mm 1 mps 629 mmHg 56%
    20:00 +22°C° 0 mm 1 mps 628 mmHg 61%
    21:00 +20°C° 0 mm 1 mps 628 mmHg 65%
    22:00 +20°C° 0 mm 1 mps 628 mmHg 62%
    23:00 +20°C° 0 mm 1 mps 628 mmHg 59%

    30 June, Sunday

    Time Temperature Precipitation Wind Pressure Humidity
    00:00 +20°C° 0 mm 1 mps 628 mmHg 56%
    01:00 +19°C° 0 mm 1 mps 628 mmHg 54%
    02:00 +19°C° 0 mm 1 mps 628 mmHg 53%
    03:00 +19°C° 0 mm 1 mps 627 mmHg 51%
    04:00 +20°C° 0 mm 1 mps 628 mmHg 50%
    05:00 +21°C° 0 mm 1 mps 629 mmHg 50%
    06:00 +22°C° 0 mm 1 mps 629 mmHg 49%
    07:00 +24°C° 0 mm 1 mps 630 mmHg 42%
    08:00 +27°C° 0 mm 1 mps 631 mmHg 36%
    09:00 +29°C° 0 mm 1 mps 632 mmHg 29%
    10:00 +30°C° 0 mm 1 mps 632 mmHg 28%
    11:00 +31°C° 0 mm 1 mps 632 mmHg 26%
    12:00 +32°C° 0 mm 1 mps 633 mmHg 25%
    13:00 +30°C° 0 mm 2 mps 632 mmHg 30%
    14:00 +29°C° 0 mm 2 mps 631 mmHg 36%
    15:00 +27°C° 0 mm 2 mps 630 mmHg 42%
    16:00 +24°C° 1.9 mm 2 mps 629 mmHg 56%
    17:00 +20°C° 1.9 mm 2 mps 628 mmHg 71%
    18:00 +16°C° 1.9 mm 2 mps 627 mmHg 85%
    19:00 +17°C° 0 mm 2 mps 627 mmHg 74%
    20:00 +17°C° 0 mm 2 mps 627 mmHg 63%
    21:00 +18°C° 0 mm 2 mps 628 mmHg 52%
    22:00 +18°C° 0 mm 2 mps 628 mmHg 50%
    23:00 +18°C° 0 mm 2 mps 628 mmHg 47%
    Show more